Location: Boiro
(42.6475°N, 8.8834°W)
Time: 01:24:03
(UTC+01:00)

S-56A Canister/Altair - Pass Details

Date: 03 December 2021
Orbit: 634 x 2499 km, 38.9° (Epoch: 26 January)

Event Time Altitude Azimuth Distance (km) Brightness Sun altitude
Exits shadow 05:01:19 11° 111° (ESE) 2,106 10.3 -41.0°
Drops below altitude 10° 05:01:22 10° 111° (ESE) 2,122 10.3 -41.0°
Sets 05:03:33 0° 107° (ESE) 2,979 11.3 -40.6°
